STARLINK-32847, 62811

Orbit data source: Space-Track

STARLINK-32847, 62811 is a payload satellite owned by SpaceX/Seattle (US) in LEO that was launched on Fri, 24 Jan 2025 UTC via an FALCON 9 launch vehicle from the Air Force Western Test Range (AFWTR). Payload-class satellites include a variety of spacecraft equipped with specific instruments for various scientific and technological missions. These include communications satellites like Starlink; space stations such as the ISS; scientific satellites like the Hubble; Earth observation satellites from companies like Planet Labs, Umbra, and HawkEye 360; GPS; miniature CubeSats for education and research; and military/defense satellites.

Loading next visibility...
Identifier
62811, 2025-018F
Orbit
LEO
Country
Flag of USUS
Related business
Manufacturer
SpaceX/Seattle
Mission
Operational Commercial Communications
Bus & Motor
STARLINK V2M, Unknown motor
Mass
730 kg wet, ~700 kg dry
Launch date (UTC)
2025-01-24 (1 year ago)
Launch vehicle
FALCON 9
Launch site
Air Force Western Test Range (AFWTR)
Object type
Payload
Rocket body
Debris
Shape & HBR
Box + 2 Pan, 17.7 m
Radar Cross Section
33.884 m², Large (>1 m²)

Expand to show TLE details & history
Last TLE update: 17 hours ago

TLE from 17 hours ago
0 STARLINK-32847
1 62811U 25018F   26120.29904302  .00012702  00000-0  44007-3 0  9994
2 62811  53.1595  69.6161 0001064  92.6255 267.4868 15.30213509 71072
Epoch: 2026-04-30T07:10Z
TLE epoch observation values (Epoch: 2026-04-30T07:10:37.316Z)
Latitude
-0.00001°
Longitude
103.71296°
Altitude
476.106 km
Speed
7.629 km/s
True Right ascension
04h 38m 27s
True Declination
0° 00' 00"
Sunlit
Object was in daylight at epoch
Visualization orbit readout
Latitude
Unknown
Longitude
Unknown
Altitude
Unknown
Speed
Unknown
Apparent Right ascension
Unknown
Apparent Declination
Unknown
Sunlit
N/A
Visualization observer readout
Local Sidereal Time
07:39:17
Azimuth
Unknown
Elevation
Unknown
Doppler factor
Unknown
Orbital elements
Apogee altitude
476.16 km
Perigee altitude
474.702 km
Semi-major axis
6,853.568 km
Eccentricity
0.00011
Inclination
53.1595°
RAAN
69.6161°
Arg. of periapsis
92.6255°
True anomaly
267.47462°
Mean anomaly
267.4868°
Eccentric anomaly
267.48071°
Mean motion
3.82532 °/min
Orbital period
94.11 mins
BSTAR
0.00044007
Loading maneuver chart data...
Computing Atmospheric mass density...
Loading historical data...
Loading historical data...
Loading historical data...
Loading historical data...
Loading historical data...
Loading historical data...
Loading historical data...

Documentation

Showing up to 5 results
|